| time (UTC) | temp C | wind direction | speed KPH | gust KPH | rain 1hr cm | rain 24hr cm | rain mn cm | humidity % | barometer mb |
| 20260502224517 | 20 | 321 | 3.2 | 19.3 | 0.00 | 0.00 | 0.00 | 76 | 1021.9 |
| 20260502224017 | 20 | 337 | 6.4 | 14.5 | 0.00 | 0.00 | 0.00 | 76 | 1021.9 |
| 20260502223512 | 20 | 285 | 3.2 | 12.9 | 0.00 | 0.00 | 0.00 | 76 | 1021.8 |
| 20260502223025 | 20 | 349 | 4.8 | 20.9 | 0.00 | 0.00 | 0.00 | 77 | 1022.0 |
| 20260502222512 | 20 | 263 | 3.2 | 12.9 | 0.00 | 0.00 | 0.00 | 77 | 1022.0 |
| 20260502222010 | 20 | 296 | 3.2 | 14.5 | 0.00 | 0.00 | 0.00 | 78 | 1021.9 |
| 20260502221507 | 20 | 311 | 3.2 | 12.9 | 0.00 | 0.00 | 0.00 | 78 | 1021.9 |
| 20260502221005 | 19 | 313 | 3.2 | 12.9 | 0.00 | 0.00 | 0.00 | 79 | 1021.9 |
| 20260502220504 | 19 | 282 | 1.6 | 14.5 | 0.00 | 0.00 | 0.00 | 81 | 1021.9 |
| 20260502220003 | 18 | 313 | 3.2 | 14.5 | 0.00 | 0.00 | 0.00 | 82 | 1021.9 |
| 20260502215502 | 18 | 334 | 1.6 | 12.9 | 0.00 | 0.00 | 0.00 | 83 | 1021.8 |
| 20260502215004 | 18 | 239 | 1.6 | 9.7 | 0.00 | 0.00 | 0.00 | 84 | 1021.8 |
| 20260502214503 | 18 | 315 | 1.6 | 9.7 | 0.00 | 0.00 | 0.00 | 84 | 1021.9 |
| 20260502214101 | 17 | 302 | 0.0 | 9.7 | 0.00 | 0.00 | 0.00 | 85 | 1021.9 |
| 20260502213600 | 17 | 300 | 1.6 | 9.7 | 0.00 | 0.00 | 0.00 | 85 | 1021.7 |
| 20260502213100 | 17 | 225 | 1.6 | 8.0 | 0.00 | 0.00 | 0.00 | 86 | 1021.5 |
| 20260502212601 | 17 | 300 | 0.0 | 4.8 | 0.00 | 0.00 | 0.00 | 86 | 1021.4 |
| 20260502212100 | 17 | 254 | 0.0 | 3.2 | 0.00 | 0.00 | 0.00 | 86 | 1021.5 |
| 20260502211600 | 17 | 319 | 0.0 | 8.0 | 0.00 | 0.00 | 0.00 | 86 | 1021.6 |
| 20260502211059 | 17 | 296 | 1.6 | 8.0 | 0.00 | 0.00 | 0.00 | 86 | 1021.6 |
| 20260502210558 | 17 | 281 | 0.0 | 4.8 | 0.00 | 0.00 | 0.00 | 86 | 1021.5 |
| 20260502210120 | 17 | 285 | 0.0 | 6.4 | 0.00 | 0.00 | 0.00 | 87 | 1021.5 |
| 20260502205600 | 17 | 30 | 0.0 | 6.4 | 0.00 | 0.00 | 0.00 | 87 | 1021.5 |
| 20260502205056 | 17 | 335 | 0.0 | 3.2 | 0.00 | 0.00 | 0.00 | 87 | 1021.4 |
| 20260502204555 | 17 | 309 | 0.0 | 4.8 | 0.00 | 0.00 | 0.00 | 86 | 1021.4 |
| 20260502204053 | 17 | 326 | 1.6 | 4.8 | 0.00 | 0.00 | 0.00 | 86 | 1021.4 |
| 20260502203553 | 17 | 204 | 0.0 | 8.0 | 0.00 | 0.00 | 0.00 | 87 | 1021.4 |
| 20260502203051 | 17 | 25 | 1.6 | 8.0 | 0.00 | 0.00 | 0.00 | 87 | 1021.5 |
| 20260502202551 | 17 | 235 | 0.0 | 6.4 | 0.00 | 0.00 | 0.00 | 86 | 1021.2 |
| 20260502202052 | 17 | 311 | 0.0 | 6.4 | 0.00 | 0.00 | 0.00 | 87 | 1021.3 |
| 20260502201551 | 17 | 300 | 1.6 | 8.0 | 0.00 | 0.00 | 0.00 | 87 | 1021.2 |
| 20260502201050 | 17 | 319 | 1.6 | 8.0 | 0.00 | 0.00 | 0.00 | 87 | 1021.2 |
| 20260502200550 | 17 | 317 | 1.6 | 8.0 | 0.00 | 0.00 | 0.00 | 87 | 1021.1 |
| 20260502200108 | 17 | 313 | 3.2 | 8.0 | 0.00 | 0.00 | 0.00 | 87 | 1021.1 |
| 20260502195550 | 17 | 309 | 0.0 | 6.4 | 0.00 | 0.03 | 0.00 | 87 | 1020.9 |
| 20260502195048 | 17 | 311 | 1.6 | 6.4 | 0.00 | 0.03 | 0.00 | 87 | 1021.1 |
| 20260502194548 | 17 | 5 | 0.0 | 4.8 | 0.00 | 0.03 | 0.00 | 87 | 1021.1 |
| 20260502194049 | 17 | 311 | 0.0 | 6.4 | 0.00 | 0.03 | 0.00 | 87 | 1021.1 |
| 20260502193548 | 17 | 277 | 0.0 | 6.4 | 0.00 | 0.03 | 0.00 | 87 | 1021.0 |
| 20260502193050 | 17 | 313 | 1.6 | 6.4 | 0.00 | 0.03 | 0.00 | 86 | 1021.0 |
| 20260502192547 | 17 | 58 | 0.0 | 4.8 | 0.00 | 0.03 | 0.00 | 86 | 1020.9 |
| 20260502192046 | 17 | 280 | 0.0 | 6.4 | 0.00 | 0.03 | 0.00 | 86 | 1020.9 |
| 20260502191556 | 17 | 42 | 0.0 | 6.4 | 0.00 | 0.03 | 0.00 | 85 | 1020.9 |
| 20260502191050 | 17 | 302 | 0.0 | 4.8 | 0.00 | 0.03 | 0.00 | 85 | 1021.0 |
| 20260502190546 | 17 | 59 | 0.0 | 4.8 | 0.00 | 0.03 | 0.00 | 85 | 1021.0 |
| 20260502190049 | 17 | 294 | 0.0 | 8.0 | 0.00 | 0.03 | 0.00 | 85 | 1021.0 |
| 20260502185544 | 17 | 293 | 1.6 | 8.0 | 0.00 | 0.03 | 0.00 | 85 | 1020.9 |
| 20260502185044 | 17 | 42 | 0.0 | 4.8 | 0.00 | 0.03 | 0.00 | 85 | 1020.9 |
| 20260502184545 | 17 | 339 | 1.6 | 4.8 | 0.00 | 0.03 | 0.00 | 85 | 1021.0 |
| 20260502184045 | 17 | 273 | 0.0 | 6.4 | 0.00 | 0.03 | 0.00 | 85 | 1020.9 |
| 20260502183546 | 17 | 259 | 0.0 | 6.4 | 0.00 | 0.03 | 0.00 | 85 | 1020.9 |
| 20260502183046 | 17 | 311 | 0.0 | 6.4 | 0.00 | 0.03 | 0.00 | 85 | 1020.9 |
| 20260502182543 | 17 | 296 | 0.0 | 6.4 | 0.00 | 0.03 | 0.00 | 86 | 1020.9 |
| 20260502182043 | 17 | 269 | 1.6 | 6.4 | 0.00 | 0.03 | 0.00 | 86 | 1020.9 |
| 20260502181543 | 17 | 34 | 0.0 | 4.8 | 0.00 | 0.03 | 0.00 | 86 | 1020.9 |
| 20260502181043 | 17 | 268 | 0.0 | 6.4 | 0.00 | 0.03 | 0.00 | 86 | 1020.9 |
| 20260502180543 | 17 | 268 | 1.6 | 12.9 | 0.00 | 0.03 | 0.00 | 86 | 1021.0 |
| 20260502164034 | 17 | 165 | 0.0 | 3.2 | 0.00 | 0.03 | 0.00 | 86 | 1021.3 |
| 20260502163534 | 17 | 163 | 0.0 | 4.8 | 0.00 | 0.03 | 0.00 | 86 | 1021.3 |
| 20260502163043 | 17 | 304 | 0.0 | 6.4 | 0.00 | 0.03 | 0.00 | 86 | 1021.3 |
| 20260502162532 | 18 | 162 | 0.0 | 4.8 | 0.00 | 0.03 | 0.00 | 86 | 1021.5 |
| 20260502162036 | 18 | 67 | 1.6 | 4.8 | 0.00 | 0.03 | 0.00 | 86 | 1021.5 |
| 20260502161531 | 18 | 53 | 0.0 | 4.8 | 0.00 | 0.03 | 0.00 | 86 | 1021.5 |
| 20260502161030 | 18 | 286 | 0.0 | 4.8 | 0.00 | 0.03 | 0.00 | 86 | 1021.5 |
| 20260502160530 | 18 | 26 | 1.6 | 4.8 | 0.00 | 0.03 | 0.00 | 85 | 1021.6 |
| 20260502152025 | 18 | 313 | 0.0 | 12.9 | 0.00 | 0.03 | 0.00 | 85 | 1021.7 |
| 20260502151549 | 18 | 342 | 1.6 | 9.7 | 0.00 | 0.03 | 0.00 | 85 | 1021.7 |
| 20260502151025 | 18 | 287 | 1.6 | 8.0 | 0.00 | 0.03 | 0.00 | 84 | 1021.8 |
| 20260502150524 | 18 | 295 | 0.0 | 4.8 | 0.00 | 0.03 | 0.00 | 84 | 1021.9 |
| 20260502130516 | 18 | 296 | 1.6 | 8.0 | 0.00 | 0.05 | 0.05 | 84 | 1022.6 |
| 20260502123514 | 18 | 315 | 0.0 | 8.0 | 0.00 | 0.05 | 0.05 | 84 | 1022.8 |
| 20260502123014 | 18 | 322 | 1.6 | 6.4 | 0.00 | 0.05 | 0.05 | 84 | 1022.8 |
| 20260502122514 | 18 | 134 | 0.0 | 6.4 | 0.00 | 0.05 | 0.05 | 84 | 1022.9 |
| 20260502122015 | 18 | 271 | 0.0 | 4.8 | 0.00 | 0.05 | 0.05 | 84 | 1023.0 |
| 20260502121516 | 18 | 246 | 1.6 | 8.0 | 0.00 | 0.05 | 0.05 | 84 | 1023.0 |
| 20260502121014 | 18 | 339 | 0.0 | 8.0 | 0.00 | 0.05 | 0.05 | 84 | 1023.1 |
| 20260502120514 | 18 | 237 | 0.0 | 9.7 | 0.00 | 0.05 | 0.05 | 84 | 1023.0 |
| 20260502115512 | 18 | 17 | 0.0 | 11.3 | 0.00 | 0.05 | 0.05 | 85 | 1023.1 |
| 20260502115012 | 18 | 269 | 1.6 | 11.3 | 0.00 | 0.05 | 0.05 | 85 | 1022.9 |
| 20260502114512 | 18 | 286 | 0.0 | 6.4 | 0.00 | 0.05 | 0.05 | 85 | 1022.9 |
| 20260502114013 | 18 | 287 | 0.0 | 6.4 | 0.00 | 0.05 | 0.05 | 84 | 1023.0 |
| 20260502113514 | 18 | 60 | 1.6 | 8.0 | 0.00 | 0.05 | 0.05 | 84 | 1022.9 |
| 20260502113012 | 18 | 270 | 3.2 | 9.7 | 0.00 | 0.05 | 0.05 | 84 | 1022.9 |
| 20260502112512 | 19 | 310 | 1.6 | 9.7 | 0.00 | 0.05 | 0.05 | 83 | 1023.0 |
| 20260502112011 | 19 | 355 | 1.6 | 6.4 | 0.00 | 0.05 | 0.05 | 83 | 1023.0 |
| 20260502111511 | 19 | 251 | 1.6 | 9.7 | 0.00 | 0.05 | 0.05 | 82 | 1022.9 |
| 20260502111011 | 19 | 317 | 1.6 | 9.7 | 0.00 | 0.05 | 0.05 | 82 | 1023.0 |
| 20260502110511 | 19 | 24 | 0.0 | 6.4 | 0.00 | 0.05 | 0.05 | 82 | 1023.1 |
| 20260502110012 | 19 | 279 | 0.0 | 8.0 | 0.00 | 0.05 | 0.05 | 82 | 1023.0 |
| 20260502105511 | 19 | 13 | 1.6 | 11.3 | 0.00 | 0.05 | 0.05 | 82 | 1023.0 |
| 20260502105010 | 19 | 313 | 1.6 | 11.3 | 0.00 | 0.05 | 0.05 | 82 | 1022.9 |
| 20260502104510 | 19 | 227 | 0.0 | 8.0 | 0.00 | 0.05 | 0.05 | 82 | 1022.9 |
| 20260502104010 | 19 | 23 | 1.6 | 8.0 | 0.00 | 0.05 | 0.05 | 81 | 1022.9 |
| 20260502103510 | 20 | 40 | 3.2 | 8.0 | 0.00 | 0.05 | 0.05 | 81 | 1023.0 |
| 20260502103009 | 20 | 321 | 3.2 | 6.4 | 0.00 | 0.05 | 0.05 | 81 | 1023.0 |
| 20260502102509 | 20 | 44 | 3.2 | 6.4 | 0.00 | 0.05 | 0.05 | 81 | 1022.8 |
| 20260502102009 | 20 | 340 | 1.6 | 8.0 | 0.00 | 0.05 | 0.05 | 81 | 1022.7 |
| 20260502101508 | 20 | 330 | 3.2 | 8.0 | 0.00 | 0.05 | 0.05 | 81 | 1022.6 |
| 20260502101008 | 20 | 196 | 1.6 | 8.0 | 0.00 | 0.05 | 0.05 | 81 | 1022.5 |
| 20260502100508 | 20 | 15 | 3.2 | 9.7 | 0.00 | 0.05 | 0.05 | 81 | 1022.5 |
| 20260502091506 | 20 | 311 | 3.2 | 14.5 | 0.00 | 0.05 | 0.05 | 78 | 1022.2 |
| 20260502091006 | 20 | 267 | 4.8 | 14.5 | 0.00 | 0.05 | 0.05 | 79 | 1022.2 |
| 20260502090511 | 20 | 355 | 3.2 | 11.3 | 0.00 | 0.05 | 0.05 | 79 | 1022.2 |
| 20260502071502 | 21 | 304 | 1.6 | 8.0 | 0.00 | 0.05 | 0.05 | 77 | 1021.7 |
| 20260502071002 | 21 | 324 | 1.6 | 11.3 | 0.00 | 0.05 | 0.05 | 76 | 1021.6 |
| 20260502070504 | 21 | 265 | 3.2 | 11.3 | 0.00 | 0.05 | 0.05 | 76 | 1021.6 |
| 20260502070002 | 21 | 355 | 1.6 | 14.5 | 0.00 | 0.05 | 0.05 | 76 | 1021.6 |
| 20260502065502 | 21 | 329 | 3.2 | 16.1 | 0.00 | 0.05 | 0.05 | 76 | 1021.6 |
| 20260502065002 | 21 | 273 | 4.8 | 16.1 | 0.00 | 0.05 | 0.05 | 76 | 1021.5 |
| 20260502064501 | 21 | 319 | 1.6 | 8.0 | 0.00 | 0.05 | 0.05 | 76 | 1021.5 |
| 20260502064002 | 21 | 228 | 1.6 | 11.3 | 0.00 | 0.05 | 0.05 | 76 | 1021.4 |
| 20260502063502 | 21 | 318 | 3.2 | 11.3 | 0.00 | 0.05 | 0.05 | 76 | 1021.4 |
| 20260502063002 | 22 | 325 | 1.6 | 8.0 | 0.00 | 0.05 | 0.05 | 75 | 1021.3 |
| 20260502062502 | 22 | 327 | 1.6 | 16.1 | 0.00 | 0.05 | 0.05 | 75 | 1021.3 |
| 20260502062001 | 22 | 198 | 1.6 | 16.1 | 0.00 | 0.05 | 0.05 | 74 | 1021.4 |
| 20260502061601 | 22 | 259 | 1.6 | 6.4 | 0.00 | 0.05 | 0.05 | 74 | 1021.4 |
| 20260502061100 | 22 | 118 | 1.6 | 16.1 | 0.00 | 0.05 | 0.05 | 73 | 1021.4 |
| 20260502060600 | 22 | 292 | 3.2 | 16.1 | 0.00 | 0.05 | 0.05 | 72 | 1021.4 |
| 20260502060100 | 22 | 82 | 3.2 | 14.5 | 0.00 | 0.05 | 0.05 | 71 | 1021.4 |
| 20260502060002 | 22 | 240 | 3.2 | 14.5 | 0.00 | 0.05 | 0.05 | 71 | 1021.3 |
| 20260502055559 | 22 | 310 | 3.2 | 12.9 | 0.00 | 0.05 | 0.05 | 71 | 1021.3 |
| 20260502055059 | 22 | 185 | 3.2 | 12.9 | 0.00 | 0.05 | 0.05 | 72 | 1021.3 |
| 20260502054610 | 22 | 232 | 1.6 | 9.7 | 0.00 | 0.05 | 0.05 | 72 | 1021.3 |
| 20260502054101 | 22 | 109 | 1.6 | 14.5 | 0.00 | 0.05 | 0.05 | 72 | 1021.4 |
| 20260502053559 | 22 | 43 | 3.2 | 14.5 | 0.00 | 0.05 | 0.05 | 72 | 1021.4 |
| 20260502053059 | 22 | 33 | 4.8 | 14.5 | 0.00 | 0.05 | 0.05 | 72 | 1021.3 |
| 20260502052559 | 22 | 44 | 3.2 | 12.9 | 0.00 | 0.05 | 0.05 | 72 | 1021.3 |
| 20260502052102 | 23 | 48 | 3.2 | 12.9 | 0.00 | 0.05 | 0.05 | 72 | 1021.3 |
| 20260502051557 | 23 | 252 | 3.2 | 12.9 | 0.00 | 0.05 | 0.05 | 72 | 1021.3 |
| 20260502051057 | 23 | 331 | 3.2 | 19.3 | 0.00 | 0.05 | 0.05 | 73 | 1021.4 |
| 20260502050557 | 23 | 82 | 3.2 | 19.3 | 0.00 | 0.05 | 0.05 | 73 | 1021.4 |
| 20260502050056 | 23 | 161 | 3.2 | 19.3 | 0.00 | 0.05 | 0.05 | 73 | 1021.5 |
| 20260502045558 | 23 | 61 | 4.8 | 19.3 | 0.00 | 0.05 | 0.05 | 73 | 1021.5 |
| 20260502045057 | 23 | 61 | 4.8 | 17.7 | 0.00 | 0.05 | 0.05 | 75 | 1021.5 |
| 20260502044558 | 23 | 126 | 3.2 | 17.7 | 0.00 | 0.05 | 0.05 | 74 | 1021.5 |
| 20260502044055 | 23 | 281 | 4.8 | 17.7 | 0.00 | 0.05 | 0.05 | 74 | 1021.6 |
| 20260502043556 | 23 | 331 | 3.2 | 19.3 | 0.00 | 0.05 | 0.05 | 73 | 1021.6 |
| 20260502043055 | 23 | 46 | 4.8 | 14.5 | 0.00 | 0.05 | 0.05 | 73 | 1021.5 |
| 20260502042556 | 23 | 80 | 4.8 | 19.3 | 0.00 | 0.05 | 0.05 | 72 | 1021.6 |
| 20260502042054 | 23 | 243 | 4.8 | 19.3 | 0.00 | 0.05 | 0.05 | 72 | 1021.6 |
| 20260502041601 | 23 | 223 | 3.2 | 14.5 | 0.00 | 0.05 | 0.05 | 74 | 1021.6 |
| 20260502041053 | 23 | 107 | 3.2 | 12.9 | 0.00 | 0.05 | 0.05 | 74 | 1021.7 |
| 20260502040555 | 23 | 123 | 1.6 | 11.3 | 0.00 | 0.05 | 0.05 | 74 | 1021.7 |
| 20260502040053 | 23 | 132 | 3.2 | 9.7 | 0.00 | 0.05 | 0.05 | 73 | 1021.6 |
| 20260502035552 | 23 | 47 | 1.6 | 11.3 | 0.00 | 0.05 | 0.05 | 72 | 1021.7 |
| 20260502035052 | 23 | 95 | 4.8 | 12.9 | 0.00 | 0.05 | 0.05 | 70 | 1021.7 |
| 20260502034552 | 24 | 55 | 4.8 | 12.9 | 0.00 | 0.05 | 0.05 | 67 | 1021.6 |
| 20260502034051 | 25 | 112 | 3.2 | 14.5 | 0.00 | 0.05 | 0.05 | 65 | 1021.8 |
| 20260502033549 | 25 | 90 | 3.2 | 14.5 | 0.00 | 0.05 | 0.05 | 65 | 1021.8 |
| 20260502033050 | 25 | 95 | 3.2 | 16.1 | 0.00 | 0.05 | 0.05 | 64 | 1021.8 |
| 20260502032548 | 24 | 300 | 4.8 | 16.1 | 0.00 | 0.05 | 0.05 | 64 | 1022.0 |
| 20260502032048 | 24 | 340 | 3.2 | 16.1 | 0.00 | 0.05 | 0.05 | 65 | 1021.9 |
| 20260502031550 | 24 | 132 | 3.2 | 17.7 | 0.00 | 0.05 | 0.05 | 65 | 1022.1 |
| 20260502031045 | 24 | 279 | 4.8 | 17.7 | 0.00 | 0.05 | 0.05 | 65 | 1022.0 |
| 20260502030546 | 24 | 302 | 8.0 | 19.3 | 0.00 | 0.05 | 0.05 | 66 | 1022.1 |
| 20260502030042 | 24 | 283 | 4.8 | 20.9 | 0.00 | 0.05 | 0.05 | 68 | 1022.1 |
| 20260502025540 | 23 | 300 | 8.0 | 20.9 | 0.00 | 0.05 | 0.05 | 69 | 1022.3 |
| 20260502025038 | 23 | 297 | 9.7 | 17.7 | 0.00 | 0.05 | 0.05 | 70 | 1022.4 |
| 20260502024539 | 23 | 275 | 6.4 | 17.7 | 0.00 | 0.05 | 0.05 | 71 | 1022.5 |
| 20260502024038 | 23 | 334 | 4.8 | 17.7 | 0.00 | 0.05 | 0.05 | 70 | 1022.6 |
| 20260502023535 | 23 | 322 | 3.2 | 14.5 | 0.00 | 0.05 | 0.05 | 71 | 1022.7 |
| 20260502023046 | 23 | 294 | 4.8 | 17.7 | 0.00 | 0.05 | 0.05 | 73 | 1022.8 |
| 20260502022533 | 22 | 303 | 4.8 | 17.7 | 0.00 | 0.05 | 0.05 | 73 | 1022.9 |
| 20260502022035 | 22 | 290 | 6.4 | 17.7 | 0.00 | 0.05 | 0.05 | 72 | 1022.9 |
| 20260502021531 | 22 | 201 | 1.6 | 17.7 | 0.00 | 0.05 | 0.05 | 74 | 1022.9 |
| 20260502021030 | 22 | 330 | 4.8 | 16.1 | 0.00 | 0.05 | 0.05 | 74 | 1023.0 |
| 20260502020536 | 22 | 276 | 3.2 | 11.3 | 0.00 | 0.05 | 0.05 | 76 | 1023.2 |
| 20260502020027 | 22 | 334 | 1.6 | 6.4 | 0.00 | 0.05 | 0.05 | 77 | 1023.3 |
| 20260502015527 | 22 | 38 | 1.6 | 9.7 | 0.00 | 0.05 | 0.05 | 79 | 1023.4 |
| 20260502015028 | 22 | 71 | 1.6 | 12.9 | 0.00 | 0.05 | 0.05 | 79 | 1023.6 |
| 20260502014523 | 22 | 279 | 1.6 | 12.9 | 0.00 | 0.05 | 0.05 | 78 | 1023.9 |
| 20260502014022 | 22 | 343 | 1.6 | 17.7 | 0.00 | 0.05 | 0.05 | 78 | 1023.9 |
| 20260502013521 | 22 | 295 | 1.6 | 17.7 | 0.00 | 0.05 | 0.05 | 79 | 1023.9 |
| 20260502013020 | 21 | 347 | 1.6 | 12.9 | 0.00 | 0.05 | 0.05 | 79 | 1024.0 |
| 20260502012519 | 21 | 336 | 4.8 | 16.1 | 0.00 | 0.05 | 0.05 | 78 | 1024.1 |
| 20260502012018 | 21 | 344 | 4.8 | 12.9 | 0.00 | 0.05 | 0.05 | 79 | 1024.2 |
| 20260502011519 | 21 | 58 | 3.2 | 12.9 | 0.00 | 0.05 | 0.05 | 79 | 1024.3 |
| 20260502011016 | 21 | 239 | 3.2 | 12.9 | 0.00 | 0.05 | 0.05 | 79 | 1024.4 |
| 20260502010515 | 21 | 15 | 3.2 | 9.7 | 0.00 | 0.05 | 0.05 | 80 | 1024.5 |
| 20260502010014 | 21 | 344 | 1.6 | 8.0 | 0.00 | 0.05 | 0.05 | 81 | 1024.5 |
| 20260502005511 | 21 | 321 | 1.6 | 9.7 | 0.00 | 0.05 | 0.05 | 82 | 1024.6 |
| 20260502005011 | 21 | 287 | 3.2 | 17.7 | 0.00 | 0.05 | 0.05 | 83 | 1024.7 |
| 20260502004510 | 20 | 311 | 3.2 | 17.7 | 0.00 | 0.05 | 0.05 | 84 | 1024.7 |
| 20260502004011 | 20 | 300 | 1.6 | 12.9 | 0.00 | 0.05 | 0.05 | 84 | 1024.8 |
| 20260502003508 | 20 | 320 | 1.6 | 8.0 | 0.00 | 0.05 | 0.05 | 86 | 1024.9 |
| 20260502003008 | 20 | 96 | 0.0 | 12.9 | 0.00 | 0.05 | 0.05 | 87 | 1025.0 |
| 20260502002508 | 20 | 117 | 3.2 | 12.9 | 0.00 | 0.05 | 0.05 | 87 | 1025.1 |
| 20260502002012 | 20 | 66 | 1.6 | 19.3 | 0.00 | 0.05 | 0.05 | 86 | 1025.1 |
| 20260502001510 | 20 | 340 | 3.2 | 19.3 | 0.00 | 0.05 | 0.05 | 85 | 1025.1 |
| 20260502001008 | 20 | 277 | 4.8 | 25.7 | 0.00 | 0.05 | 0.05 | 84 | 1025.2 |
| 20260502000507 | 20 | 290 | 8.0 | 25.7 | 0.00 | 0.05 | 0.05 | 83 | 1025.3 |
| 20260502000006 | 21 | 267 | 4.8 | 14.5 | 0.00 | 0.05 | 0.05 | 83 | 1025.2 |
| 20260501235507 | 20 | 25 | 0.0 | 9.7 | 0.00 | 0.05 | 0.05 | 84 | 1025.2 |
| 20260501235004 | 20 | 282 | 1.6 | 9.7 | 0.00 | 0.05 | 0.05 | 85 | 1025.2 |
| 20260501234505 | 20 | 270 | 1.6 | 9.7 | 0.00 | 0.05 | 0.05 | 86 | 1025.3 |
| 20260501234003 | 20 | 296 | 3.2 | 8.0 | 0.00 | 0.05 | 0.05 | 85 | 1025.2 |
| 20260501233503 | 20 | 333 | 1.6 | 6.4 | 0.00 | 0.05 | 0.05 | 87 | 1025.2 |
| 20260501233002 | 20 | 287 | 0.0 | 11.3 | 0.00 | 0.05 | 0.05 | 88 | 1025.2 |
| 20260501232602 | 20 | 355 | 0.0 | 11.3 | 0.00 | 0.05 | 0.05 | 88 | 1025.2 |
| 20260501232059 | 20 | 313 | 1.6 | 9.7 | 0.00 | 0.05 | 0.05 | 89 | 1025.1 |
| 20260501231606 | 20 | 313 | 1.6 | 6.4 | 0.00 | 0.05 | 0.05 | 90 | 1025.1 |
| 20260501231058 | 19 | 321 | 0.0 | 6.4 | 0.00 | 0.05 | 0.05 | 91 | 1025.2 |
| 20260501230556 | 19 | 292 | 0.0 | 6.4 | 0.00 | 0.05 | 0.05 | 91 | 1025.1 |
| 20260501230057 | 19 | 342 | 1.6 | 6.4 | 0.00 | 0.05 | 0.05 | 92 | 1025.0 |
| 20260501225556 | 18 | 307 | 1.6 | 4.8 | 0.00 | 0.05 | 0.05 | 92 | 1025.1 |
| 20260501225054 | 18 | 336 | 0.0 | 3.2 | 0.00 | 0.05 | 0.05 | 93 | 1025.0 |